Regional Weather Roundup
Issued by NWS

Home | Current Version | Previous Version | Graphics & Text | Print | Product List | Glossary On
Versions: 1 2 3 4 5 6 7 8 9 10 11 12 13 14 15 16 17 18 19 20 21 22 23 24 25 26 27 28 29 30 31 32 33 34 35 36 37 38 39 40 41 42 43 44 45 46 47 48 49 50
000
ASUS43 KMPX 121510
RWRMN
WEATHER ROUNDUP FOR MINNESOTA
NATIONAL WEATHER SERVICE TWIN CITIES/CHANHASSEN MN
900 AM CST TUE DEC 12 2017


NOTE: "FAIR" INDICATES FEW OR NO CLOUDS BELOW 12,000 FEET WITH NO
SIGNIFICANT WEATHER AND/OR OBSTRUCTIONS TO VISIBILITY. N/A MEANS
CURRENT SKY AND/OR WEATHER CONDITIONS ARE NOT AVAILABLE.

MNZ060>063-068>070-121600-
   Twin Cities Metro

CITY           SKY/WX    TMP DP  RH WIND       PRES   REMARKS
TWIN CITIES    CLOUDY     9   4  80 NW8       30.22F WCI  -3
ST PAUL        CLOUDY     8   2  76 NW8       30.24S WCI  -4
CRYSTAL        CLOUDY     9   1  70 NW6       30.20F WCI  -1
BLAINE         MOCLDY     9   3  78 W6        30.20S WCI  -1
LAKEVILLE      CLOUDY     9   3  78 NW6       30.20S WCI  -1
EDEN PRAIRIE   CLOUDY    11   4  73 N3        30.20F
SOUTH ST PAUL  CLOUDY     9   3  75 NW6       30.22S WCI  -1
LAKE ELMO      CLOUDY     9   3  78 NW6       30.21F WCI  -1
$$
MNZ001>005-007-008-013>017-022>024-027-028-121600-
   Northwest Minnesota

CITY           SKY/WX    TMP DP  RH WIND       PRES   REMARKS
BEMIDJI        CLOUDY     7   4  88 SE5       30.04F WCI  -1
HALLOCK        CLOUDY    18  16  93 S15       29.97F WCI   3
ROSEAU         LGT SNOW  10   7  85 S7        29.99F VSB 1   WCI   0
WARROAD        SNOW       9   3  78 SE5       30.01F VSB 1/2 WCI   0
THIEF RVR FALL CLOUDY    15  14  95 S9        30.00F WCI   3
CROOKSTON      CLOUDY    18  16  93 S14       30.01F WCI   4
FOSSTON        LGT SNOW  14  12  92 S13       30.01F WCI   0
DETROIT LAKES  CLOUDY    18  18 100 SW8       30.06F FOG     WCI   7
MOORHEAD       MOCLDY    18  14  86 S12       30.07F WCI   5
PARK RAPIDS    CLOUDY     9   5  84 S5        30.06F WCI   1
MAHNOMEN       CLOUDY    16  14  93 S10       30.02F FOG     WCI   4
$$
MNZ006-009>011-018-025>026-121600-
   North Central Minnesota

CITY           SKY/WX    TMP DP  RH WIND       PRES   REMARKS
BAUDETTE       CLOUDY     4   1  88 S6        30.03F WCI  -7
FLAG ISLAND    FLURRIES   7   3  85 S9        30.01S WCI  -7
INTL FALLS     CLOUDY     1  -3  83 SE3       30.06F
WASKISH        CLOUDY     3   1  92 SE5       30.04F WCI  -6
LONGVILLE      CLOUDY     3   1  92 CALM      30.08F
GRAND RAPIDS   CLOUDY     4   1  88 CALM      30.09F
CRANE LAKE     CLOUDY     0  -4  85 CALM      30.11S
ORR            CLOUDY     0  -6  78 CALM      30.04F
COOK           CLOUDY     0  -2  92 CALM      30.07F
WALKER         CLOUDY     8   4  86 S3        30.06F
$$
MNZ012-019>021-037-121600-
   Northeast Minnesota

CITY           SKY/WX    TMP DP  RH WIND       PRES   REMARKS
DULUTH         CLOUDY     1  -2  87 NW9       30.08F WCI -14
ELY            CLOUDY    -6  -9  84 CALM      30.07R
HIBBING        CLOUDY     0  -3  87 CALM      30.07F
EVELETH        CLOUDY     0  -5  79 W5        30.08F WCI -10
DULUTH HARBOR  CLOUDY     7   0  72 W13       30.17F WCI  -9
TWO HARBORS    CLOUDY     5   0  78 W8        30.07F WCI  -8
SILVER BAY     CLOUDY     1  -2  85 NW6       30.07F WCI -10
GRAND MARAIS     N/A      4  -4  69 W5        30.12F WCI  -5
G MARAIS ARPRT CLEAR     -4 -11  71 NW6       29.96S WCI -16
$$
MNZ029>031-032-039>041-046>048-054>057-064-121600-
   West Central Minnesota

CITY           SKY/WX    TMP DP  RH WIND       PRES   REMARKS
FERGUS FALLS   CLOUDY    16  12  86 S8        30.13F WCI   5
WHEATON        CLOUDY    21  18  86 S6        30.13F WCI  14
MORRIS         CLOUDY    18  12  79 S6        30.13S WCI   9
ALEXANDRIA     CLOUDY    14  10  84 SW10      30.11F WCI   1
ELBOW LAKE     CLOUDY    17  14  88 S10       30.10F WCI   4
WADENA         CLOUDY    12   9  85 S5        30.08F WCI   4
GLENWOOD       CLOUDY    14  10  85 SW7       30.12F WCI   4
APPLETON       CLOUDY    18  16  93 S5        30.15F WCI  11
BENSON         CLOUDY    16  10  79 SW6       30.16F WCI   7
ORTONVILLE     PTCLDY    19  16  86 CALM      30.13S
MADISON        CLOUDY    25  19  80 SW5       30.15F WCI  19
WILLMAR        CLOUDY    16  12  86 SW3       30.17F
$$
MNZ033>034-036-042>043-049>051-058-059-121600-
   Central Minnesota

CITY           SKY/WX    TMP DP  RH WIND       PRES   REMARKS
ST CLOUD       CLOUDY    10   5  80 SW3       30.16F
SAUK CENTRE    CLOUDY    13   8  83 S7        30.13F WCI   2
PAYNESVILLE    CLOUDY    14  10  83 CALM      30.16F
AITKIN         FLURRIES   1   0  92 CALM      30.11F
PINE RIVER     CLOUDY     3   0  85 SE3       30.13F
BRAINERD       CLOUDY     6   1  80 S5        30.12F WCI  -3
STAPLES        CLOUDY     9   5  85 SE5       30.10F WCI   0
LONG PRAIRIE   CLOUDY    12   9  85 SE5       30.13F WCI   4
LITTLE FALLS   CLOUDY    10   3  72 CALM      30.15F
LITCHFIELD     CLOUDY    16   9  73 CALM      30.18S
BUFFALO        CLOUDY    11   5  74 CALM      30.20F
MAPLE LAKE     CLOUDY    12   7  78 CALM      30.19F
HUTCHINSON     CLOUDY    13   8  81 CALM      30.19S
$$
MNZ037-044-045-052-053-121600-
   East Central Minnesota

CITY           SKY/WX    TMP DP  RH WIND       PRES   REMARKS
PRINCETON      CLOUDY     9   3  78 CALM      30.17F
MORA           CLOUDY     5   1  85 NW3       30.18F
CAMBRIDGE      CLOUDY     7   0  72 W3        30.19F
RUSH CITY      CLOUDY     5   1  82 W3        30.19F
MOOSE LAKE     CLOUDY     5   0  78 W3        30.13F
HINCKLEY       CLOUDY     5   1  85 CALM      30.16F
CLOQUET        FLURRIES   1  -2  85 W6        30.10F WCI -10
MCGREGOR       CLOUDY     3   1  92 CALM      30.13F
$$
MNZ071>073-080-081-089-090-097-098-121600-
   Southwest Minnesota

CITY           SKY/WX    TMP DP  RH WIND       PRES   REMARKS
MONTEVIDEO     CLOUDY    18  12  79 CALM      30.16F
GRANITE FALLS  CLOUDY    18  14  85 S6        30.18F WCI  10
CANBY          CLOUDY    26  21  83 SW14G21   30.15F WCI  14
MARSHALL       CLOUDY    23  18  81 SW13      30.15F WCI  11
REDWOOD FALLS  CLOUDY    15   8  73 S5        30.19F WCI   8
OLIVIA         CLOUDY    18  12  79 SW6       30.17F WCI   9
PIPESTONE      CLOUDY    18  14  86 W8        30.16F WCI   7
WINDOM           N/A     16   3  57 SW7       30.18S WCI   6
WORTHINGTON    CLOUDY    14  10  84 SW13      30.19F WCI   0
JACKSON        PTCLDY    14  10  85 MISG      30.19F
TRACY          CLOUDY    23  20  87 SW12      30.15F WCI  12
SLAYTON        CLOUDY    17  13  85 SW9       30.17F WCI   5
$$
MNZ065>067-074>077-082>085-091>093-121600-
   South Central Minnesota

CITY           SKY/WX    TMP DP  RH WIND       PRES   REMARKS
MANKATO        MOCLDY    11   5  77 NW8       30.21S WCI  -1
NEW ULM        CLOUDY    12   9  85 W5        30.20S WCI   4
ST JAMES       CLOUDY    12  10  92 SW5       30.21F WCI   4
FAIRMONT       CLOUDY    13   9  84 W7        30.22F WCI   3
GLENCOE        CLOUDY    14   7  76 W6        30.20S WCI   5
FARIBAULT      CLOUDY    12   5  73 W5        30.19F WCI   4
OWATONNA       CLOUDY    10   5  79 W8        30.18F WCI  -1
WASECA         CLOUDY    12   7  79 SW7       30.21F WCI   2
ALBERT LEA     CLOUDY    10   3  72 W5        30.19R WCI   2
$$
MNZ078>079-086>088-094>096-121600-
   Southeast Minnesota

CITY           SKY/WX    TMP DP  RH WIND       PRES   REMARKS
ROCHESTER      MOSUNNY    7   4  87 NW8       30.17S WCI  -6
RED WING       CLOUDY     9   0  66 NW8       30.21S WCI  -4
STANTON        CLOUDY     9   4  78 CALM      30.20F
DODGE CENTER   MOSUNNY    9   3  78 NW8       30.16F WCI  -4
WINONA           N/A     14   7  73 NW6       30.22S WCI   5
PRESTON        MOSUNNY    8   4  83 NW8       30.18R WCI  -4
$$
ABBREVIATIONS USED IN REMARKS
   TC - TEMPERATURES IN CELSIUS
  WCI - WIND CHILL INDEX
   HX - HEAT INDEX
  VSB - VISIBILITY
$$




USA.gov is the U.S. government's official web portal to all federal, state and local government web resources and services.